IBE0131 LEMD-SEGU

Flight info

Callsign IBE0131
Flight time N/A
Altitude 35000
Route ZMR N976 ARDID DCT GUNTI/M082F360 DCT 38N020W 34N030W/M082F380 28N040W 21N050W/M082F400 DCT JTHON/N0469F400 DCT BGI DCT ILVAS UM662 DOVKO UT21 ETEMO UW21 QIT UW9 TEMOX TEMOX2
Aircraft A332/H-SDE3GHIJ2J3J5M1RVWXY/LB2D1

Departure

Time N/A
Airport Adolfo Suárez Madrid–Barajas Airport (LEMD)

Arrival

Time 2026-04-28 21:59
Airport José Joaquín de Olmedo International Airport (SEGU)
Time Latitude Longitude Altitude Speed Heading
2026-04-28 21:29 -0.00599 -78.12703 40337 ft 461 kts 265°
2026-04-28 21:29 -0.00870 -78.15896 40336 ft 461 kts 265°
2026-04-28 21:29 -0.01410 -78.22271 40332 ft 460 kts 265°
2026-04-28 21:30 -0.01950 -78.28632 40337 ft 460 kts 265°
2026-04-28 21:30 -0.02490 -78.34993 40335 ft 459 kts 265°
2026-04-28 21:31 -0.03030 -78.41354 40337 ft 459 kts 265°
2026-04-28 21:31 -0.03836 -78.47680 40336 ft 459 kts 256°
2026-04-28 21:32 -0.06317 -78.53525 40326 ft 460 kts 237°
2026-04-28 21:32 -0.10357 -78.58484 40317 ft 461 kts 229°
2026-04-28 21:33 -0.14630 -78.63277 40309 ft 462 kts 229°
2026-04-28 21:33 -0.18900 -78.68074 40289 ft 462 kts 229°
2026-04-28 21:34 -0.23133 -78.72841 40230 ft 461 kts 229°
2026-04-28 21:34 -0.27380 -78.77626 40228 ft 460 kts 229°
2026-04-28 21:35 -0.31630 -78.82414 40251 ft 460 kts 229°
2026-04-28 21:35 -0.35874 -78.87198 40196 ft 460 kts 229°
2026-04-28 21:36 -0.38004 -78.89599 40019 ft 463 kts 229°
2026-04-28 21:36 -0.40146 -78.92012 39422 ft 465 kts 229°
2026-04-28 21:36 -0.42306 -78.94448 38609 ft 472 kts 229°
2026-04-28 21:36 -0.44498 -78.96918 37696 ft 477 kts 229°
2026-04-28 21:37 -0.46709 -78.99410 36842 ft 481 kts 229°
2026-04-28 21:37 -0.48934 -79.01917 36075 ft 484 kts 229°
2026-04-28 21:37 -0.51172 -79.04439 35276 ft 487 kts 229°
2026-04-28 21:37 -0.53423 -79.06975 34497 ft 489 kts 229°
2026-04-28 21:38 -0.55694 -79.09535 33508 ft 496 kts 228°
2026-04-28 21:38 -0.58111 -79.12006 32584 ft 499 kts 219°
2026-04-28 21:38 -0.61008 -79.13897 31746 ft 498 kts 207°
2026-04-28 21:38 -0.64124 -79.15412 30936 ft 498 kts 204°
2026-04-28 21:39 -0.67272 -79.16857 30220 ft 497 kts 204°
2026-04-28 21:39 -0.70402 -79.18290 29466 ft 493 kts 204°
2026-04-28 21:39 -0.73505 -79.19718 28698 ft 490 kts 204°
2026-04-28 21:39 -0.76585 -79.21141 27973 ft 485 kts 204°
2026-04-28 21:40 -0.79622 -79.22549 26899 ft 477 kts 204°
2026-04-28 21:40 -0.82608 -79.23935 25530 ft 470 kts 203°
2026-04-28 21:40 -0.85553 -79.25303 24235 ft 464 kts 203°
2026-04-28 21:40 -0.88459 -79.26654 23063 ft 456 kts 203°
2026-04-28 21:41 -0.91287 -79.27969 22423 ft 442 kts 203°
2026-04-28 21:41 -0.94058 -79.29257 21907 ft 436 kts 203°
2026-04-28 21:41 -0.96789 -79.30526 21361 ft 430 kts 203°
2026-04-28 21:41 -0.99490 -79.31781 20826 ft 425 kts 203°
2026-04-28 21:42 -1.02158 -79.33021 20293 ft 421 kts 203°
2026-04-28 21:42 -1.04797 -79.34248 19765 ft 416 kts 203°
2026-04-28 21:42 -1.07411 -79.35463 19244 ft 412 kts 204°
2026-04-28 21:42 -1.09998 -79.36666 18716 ft 408 kts 204°
2026-04-28 21:43 -1.12563 -79.37858 18169 ft 405 kts 204°
2026-04-28 21:43 -1.15103 -79.39040 17620 ft 400 kts 204°
2026-04-28 21:43 -1.17612 -79.40206 17097 ft 395 kts 204°
2026-04-28 21:43 -1.20086 -79.41357 16599 ft 390 kts 204°
2026-04-28 21:44 -1.22535 -79.42496 16085 ft 386 kts 204°
2026-04-28 21:44 -1.24961 -79.43624 15540 ft 383 kts 204°
2026-04-28 21:44 -1.27368 -79.44743 15035 ft 380 kts 204°
2026-04-28 21:44 -1.29724 -79.45838 14554 ft 377 kts 204°
2026-04-28 21:45 -1.32097 -79.46942 14061 ft 375 kts 204°
2026-04-28 21:45 -1.34453 -79.48038 13542 ft 372 kts 204°
2026-04-28 21:45 -1.36793 -79.49126 13020 ft 369 kts 204°
2026-04-28 21:45 -1.39104 -79.50201 12537 ft 364 kts 204°
2026-04-28 21:46 -1.41386 -79.51262 12063 ft 360 kts 204°
2026-04-28 21:46 -1.43644 -79.52312 11586 ft 356 kts 204°
2026-04-28 21:46 -1.45880 -79.53352 11116 ft 352 kts 204°
2026-04-28 21:46 -1.48065 -79.54369 10945 ft 339 kts 204°
2026-04-28 21:47 -1.50148 -79.55338 10851 ft 323 kts 204°
2026-04-28 21:47 -1.52143 -79.56267 10702 ft 310 kts 204°
2026-04-28 21:47 -1.54063 -79.57161 10560 ft 299 kts 204°
2026-04-28 21:47 -1.55926 -79.58027 10309 ft 293 kts 204°
2026-04-28 21:48 -1.57778 -79.58888 9949 ft 294 kts 205°
2026-04-28 21:48 -1.59633 -79.59750 9576 ft 294 kts 204°
2026-04-28 21:48 -1.61480 -79.60608 9257 ft 292 kts 204°
2026-04-28 21:48 -1.63314 -79.61461 8925 ft 290 kts 204°
2026-04-28 21:49 -1.65134 -79.62307 8592 ft 288 kts 204°
2026-04-28 21:49 -1.66944 -79.63148 8261 ft 286 kts 204°
2026-04-28 21:49 -1.68740 -79.63984 7935 ft 284 kts 204°
2026-04-28 21:49 -1.70530 -79.64816 7623 ft 283 kts 204°
2026-04-28 21:50 -1.72311 -79.65644 7300 ft 282 kts 205°
2026-04-28 21:50 -1.74060 -79.66457 6986 ft 280 kts 205°
2026-04-28 21:50 -1.75823 -79.67276 6667 ft 279 kts 205°
2026-04-28 21:50 -1.77578 -79.68093 6343 ft 277 kts 205°
2026-04-28 21:51 -1.79326 -79.68905 6007 ft 276 kts 205°
2026-04-28 21:51 -1.81058 -79.69711 5669 ft 274 kts 205°
2026-04-28 21:51 -1.82778 -79.70511 5352 ft 272 kts 205°
2026-04-28 21:51 -1.84488 -79.71306 5042 ft 270 kts 205°
2026-04-28 21:52 -1.86189 -79.72097 4721 ft 269 kts 205°
2026-04-28 21:52 -1.87918 -79.72788 4384 ft 267 kts 197°
2026-04-28 21:52 -1.89666 -79.73392 4073 ft 265 kts 202°
2026-04-28 21:52 -1.90796 -79.73916 3951 ft 266 kts 207°
2026-04-28 21:53 -1.92384 -79.74810 3903 ft 255 kts 210°
2026-04-28 21:53 -1.93870 -79.75677 3904 ft 240 kts 210°
2026-04-28 21:53 -1.95252 -79.76501 3917 ft 222 kts 211°
2026-04-28 21:53 -1.96523 -79.77268 3890 ft 206 kts 211°
2026-04-28 21:54 -1.97715 -79.77980 3814 ft 194 kts 210°
2026-04-28 21:54 -1.98853 -79.78632 3600 ft 190 kts 210°
2026-04-28 21:54 -2.00011 -79.79291 3303 ft 189 kts 210°
2026-04-28 21:54 -2.01128 -79.79936 3028 ft 187 kts 210°
2026-04-28 21:55 -2.02250 -79.80584 2773 ft 185 kts 211°
2026-04-28 21:55 -2.03354 -79.81220 2537 ft 181 kts 211°
2026-04-28 21:55 -2.04439 -79.81846 2311 ft 179 kts 211°
2026-04-28 21:55 -2.05505 -79.82460 2069 ft 174 kts 211°
2026-04-28 21:56 -2.06516 -79.83043 1856 ft 161 kts 211°
2026-04-28 21:56 -2.07447 -79.83581 1652 ft 148 kts 212°
2026-04-28 21:56 -2.08315 -79.84086 1393 ft 141 kts 212°
2026-04-28 21:56 -2.09158 -79.84584 1234 ft 141 kts 212°
2026-04-28 21:57 -2.10008 -79.85075 1083 ft 141 kts 210°
2026-04-28 21:57 -2.10862 -79.85553 918 ft 141 kts 211°
2026-04-28 21:57 -2.11704 -79.86051 760 ft 141 kts 211°
2026-04-28 21:57 -2.12551 -79.86538 619 ft 140 kts 210°
2026-04-28 21:58 -2.13395 -79.87018 408 ft 140 kts 211°
2026-04-28 21:58 -2.14230 -79.87498 226 ft 137 kts 210°
2026-04-28 21:58 -2.15046 -79.87964 53 ft 133 kts 210°
2026-04-28 21:58 -2.15790 -79.88392 30 ft 104 kts 210°
2026-04-28 21:59 -2.16241 -79.88654 33 ft 50 kts 210°
2026-04-28 21:59 -2.16533 -79.88820 32 ft 47 kts 210°
2026-04-28 21:59 -2.16709 -79.88933 31 ft 13 kts 241°
2026-04-28 22:00 -2.16674 -79.89015 32 ft 5 kts 29°
2026-04-28 22:00 -2.16639 -79.88994 32 ft 7 kts 32°
2026-04-28 22:00 -2.16588 -79.88963 32 ft 10 kts 31°
2026-04-28 22:00 -2.16524 -79.88926 32 ft 12 kts 30°
2026-04-28 22:01 -2.16449 -79.88883 32 ft 13 kts 30°
2026-04-28 22:01 -2.16363 -79.88832 32 ft 15 kts 30°
2026-04-28 22:01 -2.16264 -79.88776 32 ft 17 kts 30°
2026-04-28 22:01 -2.16157 -79.88714 32 ft 19 kts 30°
2026-04-28 22:02 -2.16041 -79.88647 32 ft 20 kts 30°
2026-04-28 22:02 -2.15913 -79.88573 32 ft 22 kts 30°
2026-04-28 22:02 -2.15777 -79.88495 32 ft 23 kts 29°
2026-04-28 22:02 -2.15631 -79.88411 31 ft 25 kts 30°
2026-04-28 22:03 -2.15478 -79.88323 32 ft 26 kts 30°
2026-04-28 22:03 -2.15371 -79.88260 31 ft 13 kts 30°
2026-04-28 22:03 -2.15299 -79.88221 31 ft 9 kts 19°
2026-04-28 22:03 -2.15249 -79.88245 32 ft 8 kts 313°
2026-04-28 22:04 -2.15210 -79.88248 32 ft 6 kts
2026-04-28 22:04 -2.15171 -79.88227 32 ft 7 kts 31°
2026-04-28 22:04 -2.15122 -79.88197 32 ft 9 kts 31°
2026-04-28 22:04 -2.15060 -79.88160 32 ft 11 kts 28°
2026-04-28 22:05 -2.14985 -79.88119 32 ft 13 kts 28°
2026-04-28 22:05 -2.14905 -79.88076 32 ft 13 kts 30°
2026-04-28 22:05 -2.14855 -79.88079 32 ft 8 kts 327°
2026-04-28 22:05 -2.14811 -79.88119 32 ft 9 kts 307°
2026-04-28 22:06 -2.14797 -79.88180 32 ft 7 kts 256°
2026-04-28 22:06 -2.14792 -79.88226 32 ft 7 kts 299°
2026-04-28 22:06 -2.14773 -79.88256 32 ft 1 kts 302°
2026-04-28 22:06 -2.14771 -79.88259 32 ft 1 kts 301°
2026-04-28 22:07 -2.14767 -79.88266 32 ft 1 kts 301°
2026-04-28 22:07 -2.14762 -79.88274 32 ft 0 kts 301°